Location: Caseificio
(44.7500°N, 11.0500°E)
Time: 21:56:57
(UTC+00:00)

Cosmos 614 Rocket - Pass Details

Date: 26 May 2022
Orbit: 732 x 764 km, 74.1° (Epoch: 29 June)

Event Time Altitude Azimuth Distance (km) Brightness Sun altitude
Rises 01:55:55 0° 335° (NNW) 3,216 7.6 -14.4°
Reaches altitude 10° 01:58:18 10° 331° (NNW) 2,292 6.7 -14.1°
Maximum altitude 02:03:23 57° 254° (WSW) 891 4.1 -13.5°
Drops below altitude 10° 02:08:29 10° 177° (S) 2,289 6.1 -12.9°
Enters shadow 02:09:14 - 175° (S) 2,579 6.3 -12.8°
